Regional Weather Roundup
Issued by NWS

Home | Current Version | Previous Version | Text Only | Print | Product List | Glossary On
Versions: 1 2 3 4 5 6 7 8 9 10 11 12 13 14 15 16 17 18 19 20 21 22 23 24 25 26 27 28 29 30 31 32 33 34 35 36 37 38 39 40 41 42 43 44 45 46 47 48 49 50
041
ASUS44 KLUB 261501
RWRTX
WEST TEXAS WEATHER ROUNDUP
NATIONAL WEATHER SERVICE LUBBOCK TX
1000 AM CDT TUE JUL 26 2016

NOTE: "FAIR" INDICATES FEW OR NO CLOUDS BELOW 12,000 FEET WITH NO
SIGNIFICANT WEATHER AND/OR OBSTRUCTIONS TO VISIBILITY.

TXZ004-006>008-010-012-014-016-OKZ002-261600-
TEXAS PANHANDLE/OKLAHOMA PANHANDLE

CITY           SKY/WX    TMP DP  RH WIND       PRES   REMARKS
AMARILLO       SUNNY     81  61  50 NW8       30.14F
BORGER         SUNNY     81  64  56 S6        30.11S
CANADIAN       SUNNY     82  72  71 SW5       30.06S
DALHART        SUNNY     81  61  50 N5        30.17S
DUMAS          SUNNY     82  61  49 NW5       30.15S
GUYMON         CLOUDY    74  68  81 CALM      30.12S
HEREFORD       SUNNY     83  58  43 N9        30.17S
PAMPA          SUNNY     83  69  61 SW3       30.12S
PERRYTON       SUNNY     80  71  73 S3        30.10F
$$

TXZ026-029-035-045-048-261600-
SOUTHERN PANHANDLE/SOUTH PLAINS/ROLLING PLAINS

CITY           SKY/WX    TMP DP  RH WIND       PRES   REMARKS
CHILDRESS      SUNNY     86  70  58 S7        30.03S
SEMINOLE       SUNNY     82  59  46 N12       30.13S
LUBBOCK        PTSUNNY   82  60  47 N10       30.12S
PLAINVIEW      SUNNY     80  60  50 N10       30.12F
SNYDER           N/A     80  69  69 W5        30.06S
$$

TXZ052-054-060>062-072-078-127-140-154-169-261600-
PERMIAN BASIN/CONCHO VALLEY/BIG COUNTRY/EDWARDS PLATEAU

CITY           SKY/WX    TMP DP  RH WIND       PRES   REMARKS
ABILENE        SUNNY     84  68  58 N8        30.04F
BIG SPRING     PTSUNNY   81  66  61 N3        30.09S
JUNCTION       SUNNY     81  71  71 CALM      30.01R
MIDLAND        MOSUNNY   84  63  49 N10       30.08R
ODESSA         MOSUNNY   84  62  47 N12       30.10R
SAN ANGELO     SUNNY     83  68  60 N6        30.03S
SONORA         SUNNY     82  68  61 CALM      30.06F
SWEETWATER     MOSUNNY   84  67  57 E7        30.08F
WINK           SUNNY     83  61  47 NE14      30.07S
$$

TXZ055-058-074-075-080-082-261600-
FAR WEST/SOUTHWEST MOUNTAINS/TRANS PECOS

CITY           SKY/WX    TMP DP  RH WIND       PRES   REMARKS
ALPINE         SUNNY     80  57  45 NE5       30.23S
DRYDEN           N/A     80  70  71 CALM      30.01S
EL PASO        MOSUNNY   78  59  51 N13       30.15S
FORT STOCKTON  SUNNY     82  62  50 CALM      30.08S
GUADALUPE PASS SUNNY     75  57  53 E23       30.25S
MARFA          SUNNY     80  58  46 N13       30.21R
PECOS          SUNNY     84  61  45 N7        30.07S
PRESIDIO       FAIR      90  60  36 NE7       30.04R
$$

TXZ014-016-019-021>030-083-261600
TEXAS TECH WEST TEXAS MESONET/TEXAS PANHANDLE/NORTHERN SOUTH PLAINS

CITY           SKY/WX    TMP DP  RH WIND       PRES   REMARKS
ABERNATHY 5ENE   N/A     81  62  53 N12       30.16R
AMARILLO 9NNE    N/A     80  62  54 NW5       30.14S
AMARILLO 7SSE    N/A     82  59  46 NW10      30.16F
AMHERST 1NE      N/A     77  61  56 NW10      30.17F
BOOTLEG 11WNW    N/A     77  60  56 W10       30.23S
CANADIAN 6E      N/A     81  70  69 SE1       30.06S
CAPROCK CYN SP   N/A     83  64  53 N3        30.10S
CHILDRESS 2NNE   N/A     86  68  55 SE9       30.04S
CLARENDON 2WSW   N/A     83  67  59 S2        30.10S
CLAUDE 12SW      N/A     78  63  61 NW9       30.14F
DIMMITT 2NE      N/A     78  60  54 NW10      30.18S
FLOYDADA 2NNE    N/A     81  59  47 N9        30.12S
FRIONA 2NE       N/A     79  58  48 NW7       30.20S
GOODLETT 3W      N/A     85  69  57 E10       30.02S
HART 3N          N/A     79  59  50 NW7       30.18S
HEREFORD 2NW     N/A     79  57  46 NW7       30.19F
MCLEAN 1E        N/A     81  68  65 S5        30.09S
MEMPHIS 1NE      N/A     83  70  64 SE3       30.06R
MULESHOE 2SSW    N/A     78  60  53 NW9       30.18F
OLTON 6S         N/A     80  59  48 NW10      30.16S
PALO DURO SP     N/A     80  63  55 N5        30.16F
PAMPA 2E         N/A     80  69  69 S5        30.12F
PLAINVIEW 1S     N/A     80  62  52 NW10      30.15S
SILVERTON 7ESE   N/A     79  63  57 NW6       30.11S
TULIA 2ENE       N/A     78  63  60 NW12      30.16S
TURKEY 2WSW      N/A     82  66  59 N8        30.08S
UMBARGER 3NNE    N/A     81  59  47 NW8       30.18S
$$

TXZ033>036-039>041-045>048-261600
TEXAS TECH WEST TEXAS MESONET/SOUTH PLAINS

CITY           SKY/WX    TMP DP  RH WIND       PRES   REMARKS
AIKEN 3WSW       N/A     79  63  57 N13       30.15F
ANDREWS 2NE      N/A     83  58  41 N16       30.13F
ANTON 6SSW       N/A     79  61  54 NW13      30.16S
BROWNFIELD 2S    N/A     79  59  50 N14       30.14F
DENVR CTY 7WNW   N/A     80  58  47 NE12      30.16S
GAIL 2ESE        N/A     82  65  56 N9        30.07S
LAMESA 2SE       N/A     82  62  51 N13       30.11F
LEVELLAND 4S     N/A     80  58  46 N15G22    30.16F
LUBBOCK 3WNW     N/A     80  57  44 NW9       30.14S
MORTON 1ENE      N/A     79  60  51 NW13      30.18S
ODONNELL 1N      N/A     82  59  45 NW15      30.12S
PLAINS 3N        N/A     79  60  51 N14       30.17S
RALLS 1SE        N/A     81  61  51 N10       30.13S
REESE CENTER     N/A     79  60  51 NW15      30.15S
SEAGRAVES 1SW    N/A     81  61  50 N13G20    30.14F
SEMINOLE 2NNE    N/A     81  58  45 N15       30.13S
SLATON 2NE       N/A     84  57  39 N13G20    30.12F
SNYDER 3E        N/A     85  66  52 N7        30.06S
SUNDOWN 8SW      N/A     80  59  49 N14       30.16F
TAHOKA 3NNE      N/A     82  60  47 NW15      30.13S
WOLFFORTH 6SSW   N/A     79  60  51 NW16      30.15S
$$

TXZ031-032-036>038-042>044-261600-
TEXAS TECH WEST TEXAS MESONET/ROLLING PLAINS

CITY           SKY/WX    TMP DP  RH WIND       PRES   REMARKS
ASPERMONT 3NE    N/A     89  66  45 NE3       30.04S
FLUVANNA 3WNW    N/A     80  66  61 N12       30.09S
GRAHAM 5SSW      N/A     84  60  44 N15       30.10F
GUTHRIE 10WSW    N/A     84  65  53 N5        30.04S
HASKELL 1NW      N/A     85  65  50 E5        30.03F
JAYTON 1SSE      N/A     85  66  52 N1        30.04S
KNOX CITY 3NW    N/A     84  66  53 SE5       30.03S
LK A HENRY 1NW   N/A     80  66  62 NW3       30.07S
NORTHFIELD 1S    N/A     83  69  62 W3        30.05S
PADUCAH 10SW     N/A     85  68  56 E5        30.05S
POST 1NE         N/A     85  61  45 NW8       30.09S
RRING SPRGS 3N   N/A     84  66  55 N3        30.09S
SEYMOUR 3NW      N/A     85  68  56 E7        30.02S
SPUR 1W          N/A     84  65  52 N2        30.06S
WEINERT 2NNE     N/A     86  68  55 E8        30.03S
WHITE RVR 6NE    N/A     84  60  43 N12       30.09S
$$

TXZ052-054-060>062-072-078-127-140-154-169-261600-
TEXAS TECH WEST TEXAS MESONET/PERMIAN BASIN/
CONCHO VALLEY/BIG COUNTRY/EDWARDS PLATEAU

CITY           SKY/WX    TMP DP  RH WIND       PRES   REMARKS
COYANOSA 2N      N/A     86  63  45 NE7       30.07S
JUNCTION 1SSW    N/A     81  71  71 NE2       30.03S
MERTZON 3NNE     N/A     84  68  59 N6        30.06F
SAN ANGELO 7NW   N/A     82  65  55 NE1       30.04F
STRLNG CT 4WSW   N/A     85  66  52 W2        30.07
ST LAWRNCE 5SW   N/A     82  65  55 SE1       30.08S
SWEETWATR 11SW   N/A     85  67  55 NE6       30.08S
WALL 1E          N/A     80  66  61 NW1       30.05S
$$

TXZ055-058-074-075-080-082-261600-
TEXAS TECH WEST TEXAS MESONET/FAR WEST/SOUTHWEST MOUNTAINS/TRANS PECOS

CITY           SKY/WX    TMP DP  RH WIND       PRES   REMARKS
PRSMN GAP BBNP   N/A     84  64  49 NE8       30.06S
GUADLPE MTN NP   N/A     75  55  50 NE12      30.29F
$$




USA.gov is the U.S. government's official web portal to all federal, state and local government web resources and services.